CZ-6A DEB

Satellite information

Favourite Embed

Satellite Type and Status

DEBRISIN ORBIT

Key statistics

Satellite CZ-6A DEB at a glance.

Uptime

969

Days in orbit

Revolutions

≈ 14.1

Per day

Orbit

SSO

Sun Synchronous Orbit

Inclination

98.8

Latest

Satellite identification and parameters

Extended collection of information and parameters for CZ-6A DEB.

Object identification

Identified? True

Debris? True

Object name: CZ-6A DEB

International designator: 2022-151NE

Object number (NORAD): 54604

Object ID (CCSDS): 54604

Country: PEOPLES REPUBLIC OF CHINA (PRC)

Current information (Y/N): Y

RCS size: SMALL

Orbital parameters

Period: 102.142 minutes

Inclination: 98.8432 deg

SMA: 7238.171 km

Apoapsis: 894.794 km

Periapsis: 825.279 km

RAAN: 190.3738 deg

Eccentricy: 0.004802

Argument of periapsis: 245.817 deg

Mean anomaly: 113.7976 deg

Mean motion: 14.09806339 rev/day

Mean motion (dot): 0.00000245 rev/day2

B* drag term: 0.00016282 1/REarth

Two-line elements (TLE)

Creation date: July 6, 2025, 10:56 p.m.

Reference frame: TEME

Reference center: EARTH

Epoch: July 6, 2025, 9:10 p.m. UTC

TLE line 0: 0 CZ-6A DEB

TLE line 1: 1 54604U 22151NE 25187.88242058 .00000245 00000-0 16282-3 0 9993

TLE line 2: 2 54604 98.8432 190.3738 0048020 245.8170 113.7976 14.09806339135609

Live tracking on map

Real-time ground track for satellite CZ-6A DEB.

In-orbit conjunctions

A list of the most updated potential collisions computed for object CZ-6A DEB.

Target Orbit TCA Probability of collision Miss distance Type
NOAA 16 DEB SSO 2025-06-04 17:08:51 0.0001313192 78.0 (m) DEBRIS
CZ-6A DEB SSO 2025-03-21 19:13:32 0.0001628267 309.0 (m) DEBRIS

Associated space launch

Chinese satellite reported for atmospheric/ocean/environmental/spatial parameter research purposes, details TBD.

CZ-6A DEB was lifted into orbit during the mission ‘Long March 6A | Yunhai 3’, on board a Long March 6A space rocket.

The launch took place on Nov. 11, 2022, 10:52 p.m. from Launch Complex 9A.

For more information about the launch, click the button.

Launch to space Long March 6A | Yunhai 3
Long March 6A | Yunhai 3

Agency: N/A

Status: Launch Successful

Launch date: Nov. 11, 2022, 10:52 p.m. UTC

Rocket: Long March 6A

Launch pad: Launch Complex 9A

Location: Taiyuan Satellite Launch Center, People's Republic of China

...

Latest news about this satellite

There are no fresh news available about this satellite. Check back as we update our databases every day.


Newsletter sign-up

Weekly statistics, charts and insights to help you stay on top of the space industry.